When you browse on this site, cookies collect data to enhance your experience and personalize the content and advertising you see.
Visit our Privacy Policy to learn more. By continuing to use the site, you agree to this use of cookies and data.
  • In Hungary
  • List of Countries
  • For 7 days
  • Water Temperature
  • Satellite Maps
  • Weather Map
  • News
  • Weather Widgets
  • user-avatar
    Login

    Hourly Weather Bintulu

    Today, 19 November, Monday

    Time Temperature Precipitation Wind Pressure Humidity
    00:00 +26°C° 0.2 mm 1 mps 758 mmHg 92%
    01:00 +26°C° 0.2 mm 1 mps 758 mmHg 93%
    02:00 +26°C° 0 mm 1 mps 758 mmHg 93%
    03:00 +26°C° 0.1 mm 1 mps 758 mmHg 94%
    04:00 +26°C° 0.1 mm 1 mps 758 mmHg 94%
    05:00 +25°C° 0.1 mm 1 mps 758 mmHg 95%
    06:00 +26°C° 0.1 mm 1 mps 758 mmHg 90%
    07:00 +28°C° 0.1 mm 1 mps 758 mmHg 85%
    08:00 +29°C° 0 mm 1 mps 758 mmHg 79%
    09:00 +31°C° 0.4 mm 1 mps 758 mmHg 73%
    10:00 +32°C° 0.4 mm 2 mps 758 mmHg 67%
    11:00 +34°C° 0.4 mm 2 mps 758 mmHg 61%
    12:00 +34°C° 0 mm 2 mps 758 mmHg 59%
    13:00 +35°C° 0 mm 2 mps 757 mmHg 58%
    14:00 +34°C° 0 mm 2 mps 757 mmHg 59%
    15:00 +34°C° 0.2 mm 2 mps 757 mmHg 64%
    16:00 +32°C° 0.2 mm 2 mps 756 mmHg 69%
    17:00 +31°C° 0.2 mm 2 mps 756 mmHg 73%
    18:00 +30°C° 0 mm 2 mps 757 mmHg 78%
    19:00 +28°C° 0 mm 2 mps 757 mmHg 83%
    20:00 +27°C° 0 mm 2 mps 758 mmHg 88%
    21:00 +27°C° 0 mm 1 mps 758 mmHg 89%
    22:00 +27°C° 0 mm 1 mps 758 mmHg 90%
    23:00 +26°C° 0 mm 1 mps 759 mmHg 91%

    Tomorrow, 20 November, Tuesday

    Time Temperature Precipitation Wind Pressure Humidity
    00:00 +26°C° 0 mm 1 mps 758 mmHg 92%
    01:00 +26°C° 0 mm 1 mps 758 mmHg 93%
    02:00 +26°C° 0 mm 1 mps 758 mmHg 94%
    03:00 +26°C° 0.2 mm 1 mps 757 mmHg 95%
    04:00 +25°C° 0.2 mm 1 mps 757 mmHg 96%
    05:00 +25°C° 0.2 mm 1 mps 757 mmHg 96%
    06:00 +26°C° 0.5 mm 1 mps 757 mmHg 93%
    07:00 +27°C° 0.5 mm 1 mps 757 mmHg 89%
    08:00 +28°C° 0.5 mm 1 mps 758 mmHg 86%
    09:00 +30°C° 0.2 mm 1 mps 758 mmHg 76%
    10:00 +32°C° 0.2 mm 1 mps 758 mmHg 66%
    11:00 +34°C° 0.2 mm 1 mps 758 mmHg 56%
    12:00 +34°C° 0 mm 1 mps 757 mmHg 57%
    13:00 +35°C° 0 mm 2 mps 757 mmHg 57%
    14:00 +35°C° 0 mm 2 mps 756 mmHg 58%
    15:00 +34°C° 0.1 mm 2 mps 756 mmHg 64%
    16:00 +32°C° 0.1 mm 2 mps 755 mmHg 70%
    17:00 +30°C° 0.1 mm 2 mps 755 mmHg 76%
    18:00 +29°C° 0.1 mm 2 mps 756 mmHg 80%
    19:00 +28°C° 0.1 mm 2 mps 756 mmHg 84%
    20:00 +27°C° 0.1 mm 1 mps 757 mmHg 89%
    21:00 +27°C° 0 mm 1 mps 757 mmHg 90%
    22:00 +27°C° 0 mm 1 mps 757 mmHg 91%
    23:00 +26°C° 0 mm 1 mps 758 mmHg 92%

    Day after tomorrow, 21 November, Wednesday

    Time Temperature Precipitation Wind Pressure Humidity
    00:00 +26°C° 0 mm 1 mps 757 mmHg 92%
    01:00 +26°C° 0 mm 1 mps 757 mmHg 93%
    02:00 +26°C° 0 mm 1 mps 757 mmHg 94%
    03:00 +26°C° 0 mm 1 mps 756 mmHg 95%
    04:00 +26°C° 0 mm 1 mps 756 mmHg 96%
    05:00 +25°C° 0 mm 1 mps 756 mmHg 97%
    06:00 +26°C° 0.1 mm 1 mps 756 mmHg 93%
    07:00 +27°C° 0.1 mm 1 mps 757 mmHg 89%
    08:00 +28°C° 0.1 mm 1 mps 757 mmHg 86%
    09:00 +30°C° 0.1 mm 1 mps 757 mmHg 77%
    10:00 +33°C° 0.1 mm 1 mps 757 mmHg 68%
    11:00 +35°C° 0.1 mm 1 mps 757 mmHg 59%
    12:00 +35°C° 0.1 mm 1 mps 756 mmHg 59%
    13:00 +35°C° 0.1 mm 2 mps 755 mmHg 59%
    14:00 +35°C° 0.1 mm 2 mps 754 mmHg 59%
    15:00 +34°C° 0.4 mm 2 mps 754 mmHg 65%
    16:00 +32°C° 0.4 mm 2 mps 754 mmHg 70%
    17:00 +31°C° 0.4 mm 2 mps 753 mmHg 76%
    18:00 +30°C° 0.2 mm 2 mps 754 mmHg 81%
    19:00 +29°C° 0.2 mm 2 mps 755 mmHg 85%
    20:00 +27°C° 0.2 mm 2 mps 756 mmHg 90%
    21:00 +27°C° 0.1 mm 2 mps 757 mmHg 90%
    22:00 +27°C° 0.1 mm 1 mps 757 mmHg 91%
    23:00 +27°C° 0.1 mm 1 mps 757 mmHg 91%

    22 November, Thursday

    Time Temperature Precipitation Wind Pressure Humidity
    00:00 +27°C° 0 mm 1 mps 757 mmHg 92%
    01:00 +26°C° 0 mm 1 mps 757 mmHg 93%
    02:00 +26°C° 0 mm 1 mps 756 mmHg 94%
    03:00 +26°C° 0 mm 1 mps 756 mmHg 95%
    04:00 +26°C° 0 mm 1 mps 756 mmHg 96%
    05:00 +26°C° 0 mm 1 mps 756 mmHg 97%
    06:00 +27°C° 0 mm 2 mps 756 mmHg 94%
    07:00 +27°C° 0 mm 2 mps 757 mmHg 90%
    08:00 +28°C° 0 mm 2 mps 758 mmHg 87%
    09:00 +30°C° 0 mm 2 mps 758 mmHg 77%
    10:00 +32°C° 0 mm 2 mps 758 mmHg 66%
    11:00 +35°C° 0 mm 2 mps 758 mmHg 56%
    12:00 +35°C° 0.1 mm 2 mps 757 mmHg 56%
    13:00 +35°C° 0.1 mm 2 mps 756 mmHg 56%
    14:00 +35°C° 0.1 mm 3 mps 755 mmHg 56%
    15:00 +34°C° 0.9 mm 3 mps 755 mmHg 67%
    16:00 +31°C° 0.9 mm 3 mps 755 mmHg 77%
    17:00 +29°C° 0.9 mm 3 mps 754 mmHg 88%
    18:00 +29°C° 1.7 mm 3 mps 755 mmHg 90%
    19:00 +28°C° 1.7 mm 3 mps 756 mmHg 92%
    20:00 +27°C° 1.7 mm 3 mps 757 mmHg 94%
    21:00 +27°C° 1.3 mm 3 mps 758 mmHg 94%
    22:00 +26°C° 1.3 mm 3 mps 758 mmHg 95%
    23:00 +26°C° 1.3 mm 3 mps 758 mmHg 95%

    23 November, Friday

    Time Temperature Precipitation Wind Pressure Humidity
    00:00 +26°C° 0.8 mm 3 mps 758 mmHg 95%
    01:00 +26°C° 0.8 mm 3 mps 757 mmHg 95%
    02:00 +26°C° 0.8 mm 4 mps 757 mmHg 95%
    03:00 +26°C° 0.6 mm 4 mps 757 mmHg 95%
    04:00 +26°C° 0.6 mm 3 mps 757 mmHg 95%
    05:00 +25°C° 0.6 mm 3 mps 757 mmHg 95%
    06:00 +26°C° 0.3 mm 3 mps 758 mmHg 95%
    07:00 +26°C° 0.3 mm 3 mps 758 mmHg 94%
    08:00 +26°C° 0.3 mm 3 mps 759 mmHg 94%
    09:00 +27°C° 0 mm 3 mps 759 mmHg 87%
    10:00 +29°C° 0 mm 3 mps 759 mmHg 81%
    11:00 +30°C° 0 mm 3 mps 759 mmHg 74%
    12:00 +31°C° 0.2 mm 3 mps 758 mmHg 72%
    13:00 +33°C° 0.2 mm 3 mps 757 mmHg 70%
    14:00 +34°C° 0.2 mm 2 mps 756 mmHg 67%
    15:00 +32°C° 0.7 mm 2 mps 756 mmHg 74%
    16:00 +31°C° 0.7 mm 2 mps 756 mmHg 80%
    17:00 +30°C° 0.7 mm 2 mps 756 mmHg 86%
    18:00 +29°C° 0.6 mm 2 mps 756 mmHg 88%
    19:00 +28°C° 0.6 mm 2 mps 757 mmHg 91%
    20:00 +27°C° 0.6 mm 1 mps 758 mmHg 93%
    21:00 +27°C° 0.3 mm 2 mps 758 mmHg 94%
    22:00 +27°C° 0.3 mm 2 mps 758 mmHg 94%
    23:00 +26°C° 0.3 mm 2 mps 758 mmHg 95%

    24 November, Saturday

    Time Temperature Precipitation Wind Pressure Humidity
    00:00 +26°C° 0.6 mm 2 mps 758 mmHg 95%
    01:00 +26°C° 0.6 mm 2 mps 757 mmHg 96%
    02:00 +26°C° 0.6 mm 2 mps 757 mmHg 96%
    03:00 +26°C° 0.7 mm 2 mps 757 mmHg 96%
    04:00 +26°C° 0.7 mm 1 mps 757 mmHg 96%
    05:00 +26°C° 0.7 mm 1 mps 757 mmHg 96%
    06:00 +26°C° 0.1 mm 1 mps 758 mmHg 94%
    07:00 +27°C° 0.1 mm 2 mps 758 mmHg 93%
    08:00 +28°C° 0.1 mm 2 mps 759 mmHg 91%
    09:00 +30°C° 0 mm 1 mps 759 mmHg 79%
    10:00 +33°C° 0 mm 1 mps 758 mmHg 67%
    11:00 +35°C° 0 mm 1 mps 758 mmHg 55%
    12:00 +35°C° 0.3 mm 1 mps 757 mmHg 60%
    13:00 +34°C° 0.3 mm 1 mps 757 mmHg 64%
    14:00 +34°C° 0.3 mm 2 mps 756 mmHg 69%
    15:00 +32°C° 1.4 mm 2 mps 756 mmHg 76%
    16:00 +31°C° 1.4 mm 2 mps 756 mmHg 83%
    17:00 +30°C° 1.4 mm 1 mps 756 mmHg 90%
    18:00 +29°C° 0.1 mm 1 mps 756 mmHg 91%
    19:00 +28°C° 0.1 mm 1 mps 757 mmHg 92%
    20:00 +25°C° 0.1 mm 0 mps 758 mmHg 94%
    21:00 +25°C° 0 mm 0 mps 758 mmHg 94%
    22:00 +25°C° 0 mm 0 mps 758 mmHg 94%
    23:00 +25°C° 0 mm 0 mps 758 mmHg 95%
    Show more